Location: Unspecified
(0.0000°N, 0.0000°E)
Time: 17:59:58
(UTC+00:00)

SR - All Passes

Search period start: 18 January 2020 00:00
Search period end: 28 January 2020 00:00
Orbit: 574 x 882 km, 66.7° (Epoch: 17 January)

Date Brightness Start Highest point End Pass type
(mag) Time Alt. Az. Time Alt. Az. Time Alt. Az.
18 Jan - 10:24:58 10° NNW 10:29:52 88° WSW 10:34:22 10° SSE daylight
18 Jan - 21:10:19 10° SE 21:13:05 14° ESE 21:15:58 10° ENE night (unlit)
18 Jan - 22:49:58 10° SW 22:54:49 38° WNW 23:00:00 10° N night (unlit)
19 Jan - 09:35:54 10° N 09:40:14 32° ENE 09:44:17 10° SE daylight
19 Jan - 11:20:20 10° W 11:21:54 11° WSW 11:23:26 10° SW daylight
19 Jan - 21:59:57 10° SSW 22:05:11 86° ESE 22:10:51 10° NNE night (unlit)
20 Jan - 08:48:52 10° NE 08:50:31 12° ENE 08:52:07 10° E daylight
20 Jan - 10:28:07 10° NW 10:32:24 32° WSW 10:36:25 10° S daylight
20 Jan - 21:10:58 10° S 21:15:39 34° ESE 21:20:39 10° NE visible
20 Jan - 22:54:11 10° WSW 22:57:34 17° WNW 23:01:04 10° NNW night (unlit)
21 Jan - 09:38:01 10° NNW 09:42:53 84° ENE 09:47:22 10° SSE daylight
21 Jan - 20:23:40 10° SE 20:26:08 13° ESE 20:28:40 10° E visible
21 Jan - 22:02:53 10° SW 22:07:50 41° WNW 22:13:09 10° N night (unlit)
22 Jan - 08:49:04 10° N 08:53:15 29° ENE 08:57:10 10° SE daylight
22 Jan - 10:32:54 10° W 10:34:56 13° WSW 10:36:54 10° SW daylight
22 Jan - 21:12:59 10° SSW 21:18:14 79° ESE 21:23:53 10° NNE visible
23 Jan - 08:02:49 10° ENE 08:03:31 10° ENE 08:04:13 10° ENE daylight
23 Jan - 09:41:04 10° NW 09:45:26 36° WSW 09:49:31 10° S daylight
23 Jan - 20:24:05 10° S 20:28:42 31° ESE 20:33:36 10° NE visible
23 Jan - 22:06:57 10° WSW 22:10:35 18° WNW 22:14:24 10° NNW visible
24 Jan - 08:51:05 10° NNW 08:55:55 76° ENE 09:00:21 10° SSE daylight
24 Jan - 19:37:07 10° SE 19:39:10 12° ESE 19:41:18 10° E visible
24 Jan - 21:15:50 10° SW 21:20:53 45° WNW 21:26:18 10° N visible
25 Jan - 08:02:15 10° NNE 08:06:16 26° ENE 08:10:02 10° SE daylight
25 Jan - 09:45:35 10° WNW 09:47:58 14° WSW 09:50:16 10° SW daylight
25 Jan - 20:26:01 10° SSW 20:31:16 73° ESE 20:36:57 10° NNE visible
26 Jan - 08:54:02 10° NW 08:58:28 39° WSW 09:02:35 10° S daylight
26 Jan - 19:37:13 10° SSE 19:41:45 29° ESE 19:46:32 10° NE visible
26 Jan - 21:19:43 10° WSW 21:23:37 20° WNW 21:27:41 10° NNW visible
27 Jan - 08:04:09 10° NNW 08:08:55 69° ENE 08:13:19 10° SSE daylight
27 Jan - 18:50:41 10° SE 18:52:13 11° ESE 18:53:46 10° E visible
27 Jan - 20:28:47 10° SW 20:33:55 49° WNW 20:39:25 10° N visible
